Location: Oregon Star Party
(44.2935°N, 120.1332°W)
Time: 08:01:09
(UTC-07:00)

Amateur Radio Satellites - All Passes

Search period start: 05 July 2015 07:31
Search period end: 06 July 2015 07:31
Location: Oregon Star Party, 44.2935°N, 120.1332°W

Satellite Date Start Highest point End Downlink Frequencies (MHz)
Time Altitude Azimuth
BEESAT 3 05 Jul 07:32:10 07:36:12 66° 122° (ESE) 07:40:18 437.485
AIST 2 05 Jul 07:33:44 07:36:01 15° 111° (ESE) 07:38:29 435.215
O/OREOS (USA 219) 05 Jul 07:34:50 07:39:11 56° 110° (ESE) 07:43:34 437.305
AUBIESAT-1 05 Jul 07:43:09 07:45:31 18° 61° (ENE) 07:48:02 437.475
BEESAT 2 05 Jul 07:45:32 07:49:37 72° 122° (ESE) 07:53:46 435.950
BRITE-PL 05 Jul 07:52:13 07:54:26 14° 88° (E) 07:56:47 437.365/2234.400
GONETS M04 05 Jul 07:57:35 08:03:41 23° 80° (E) 08:10:07
DANDE 05 Jul 07:59:36 08:06:19 47° 97° (E) 08:11:32 436.750
M-CUBED/EXP-1 PRIME 05 Jul 08:17:17 08:20:31 54° 68° (ENE) 08:23:56 437.505
CUTE-I 05 Jul 08:25:57 08:30:48 35° 293° (WNW) 08:35:35 437.470
Cosmos 2504 05 Jul 08:31:00 08:34:39 14° 303° (WNW) 08:37:55 435.465 / 435.565
CUSAT 1 05 Jul 08:32:39 08:38:59 72° 281° (W) 08:43:43 437.405
ISS 05 Jul 08:37:00 08:40:13 68° 147° (SSE) 08:43:28 145.825
RS-15 05 Jul 08:38:18 08:48:01 31° 19° (NNE) 08:58:14 29.354- 29.394
STRAND 1 05 Jul 08:38:28 08:41:37 16° 272° (W) 08:44:35 437.568
HO-68 05 Jul 08:52:25 08:58:34 31° 94° (E) 09:04:51 435.675
SEEDS 05 Jul 08:56:08 08:59:07 19° 91° (E) 09:02:14 437.485
VERMONT LUNAR 05 Jul 08:58:22 09:01:16 36° 171° (S) 09:04:12 437.305
GOMX 1 05 Jul 08:59:52 09:03:54 44° 98° (E) 09:07:52 467.674
Cubesat XI-IV 05 Jul 09:01:16 09:05:01 19° 299° (WNW) 09:08:37 437.490
AAUSAT CUBESAT 2 05 Jul 09:05:16 09:07:50 16° 90° (E) 09:10:33 437.432
AIST 2 05 Jul 09:09:55 09:14:10 64° 308° (NW) 09:18:25 435.215
BEESAT 3 05 Jul 09:11:41 09:14:36 18° 322° (NW) 09:17:26 437.485
O/OREOS (USA 219) 05 Jul 09:15:53 09:19:01 18° 309° (NW) 09:22:04 437.305
AUBIESAT-1 05 Jul 09:17:12 09:20:08 28° 259° (W) 09:23:10 437.475
BEESAT 2 05 Jul 09:25:20 09:28:11 17° 322° (NW) 09:30:56 435.950
CUBEBUG 2 05 Jul 09:25:28 09:26:44 11° 88° (E) 09:28:14 437.445
PHONESAT 2.4 05 Jul 09:29:12 09:32:01 24° 160° (SSE) 09:34:53 2401.200-2431.200
BRITE-PL 05 Jul 09:29:15 09:33:29 51° 288° (WNW) 09:37:31 437.365/2234.400
Cosmos 2499 05 Jul 09:29:25 09:32:16 13° 78° (ENE) 09:35:35 435.465 / 435.565
Oscar 11 05 Jul 09:29:47 09:31:57 14° 88° (E) 09:34:19 145.826/435.025
COMPASS 1 05 Jul 09:31:14 09:35:07 35° 96° (E) 09:39:01 437.405
DOVE 4 05 Jul 09:39:20 09:43:30 75° 101° (ESE) 09:47:40 437.250
DANDE 05 Jul 09:43:41 09:49:32 29° 288° (WNW) 09:54:08 436.750
CUTE 1.7 + AOD 2 05 Jul 09:44:05 09:48:24 76° 102° (ESE) 09:52:41 437.475
CANX-2 05 Jul 09:47:36 09:51:55 88° 284° (WNW) 09:56:13 2200.000
QB50P2 05 Jul 09:48:18 09:48:55 10° 61° (ENE) 09:49:45 145.880/145.840
POPSAT HIP 1 05 Jul 09:49:04 09:49:24 10° 60° (ENE) 09:49:57 437.405
UNISAT 6 05 Jul 09:49:55 09:53:18 24° 67° (ENE) 09:56:46 437.425
GONETS M04 05 Jul 09:50:49 09:59:38 81° 279° (W) 10:08:26
FUNcube-1 05 Jul 09:58:20 10:00:53 16° 90° (E) 10:03:38 145.935
UWE-3 05 Jul 10:12:36 10:16:19 29° 95° (E) 10:20:06 435.000/436.395/437.385
ISS 05 Jul 10:13:56 10:16:50 29° 345° (NNW) 10:19:44 145.825
CINEMA 3 05 Jul 10:17:58 10:22:10 89° 103° (ESE) 10:26:25 145.822/145.860
QB50P1 05 Jul 10:24:40 10:28:00 24° 67° (ENE) 10:31:26 145.935-145.965
SEEDS 05 Jul 10:31:06 10:35:08 41° 289° (WNW) 10:39:07 437.485
ANTELSAT 05 Jul 10:33:28 10:37:43 68° 75° (ENE) 10:41:59 437.575/2403.000
VERMONT LUNAR 05 Jul 10:34:58 10:37:54 37° 188° (S) 10:40:50 437.305
NANOSAT C BR1 05 Jul 10:38:01 10:41:46 32° 69° (ENE) 10:45:33 145.865
GOMX 1 05 Jul 10:38:56 10:41:46 17° 295° (WNW) 10:44:26 467.674
AAUSAT CUBESAT 2 05 Jul 10:39:40 10:43:44 47° 288° (WNW) 10:47:47 437.432
HO-68 05 Jul 10:39:43 10:46:41 55° 293° (WNW) 10:53:35 435.675
DX 1 05 Jul 10:43:13 10:46:03 17° 91° (E) 10:49:01 434.975-435.025
DUCHIFAT 1 05 Jul 10:44:28 10:48:20 36° 70° (ENE) 10:52:14 145.980
TIGRISAT 05 Jul 10:45:21 10:49:38 88° 75° (ENE) 10:53:54 435.000
DELFI C3 05 Jul 10:48:19 10:52:24 68° 101° (E) 10:56:27 145.870
50 SAT 05 Jul 10:49:35 10:50:55 12° 88° (E) 10:52:28 437.505
POLYITAN 1 05 Jul 10:50:40 10:54:42 44° 72° (ENE) 10:58:45 437.675
RS-15 05 Jul 10:51:32 11:03:08 68° 49° (NE) 11:15:15 29.354- 29.394
AIST 2 05 Jul 10:51:41 10:53:37 12° 328° (NNW) 10:55:25 435.215
BUGSAT 1 05 Jul 10:57:04 11:00:51 33° 70° (ENE) 11:04:39 437.445
ZACube-1 05 Jul 10:57:36 11:01:49 71° 102° (ESE) 11:06:07 437.345
CUBEBUG 2 05 Jul 10:59:45 11:03:57 67° 286° (WNW) 11:08:12 437.445
UKube-1 05 Jul 11:02:05 11:05:38 25° 94° (E) 11:09:14 .
Oscar 11 05 Jul 11:04:17 11:08:35 59° 287° (WNW) 11:12:51 145.826/435.025
PHONESAT 2.4 05 Jul 11:06:22 11:09:40 43° 177° (S) 11:12:58 2401.200-2431.200
COMPASS 1 05 Jul 11:07:16 11:10:36 22° 293° (WNW) 11:13:52 437.405
HUMSAT D 05 Jul 11:08:23 11:12:18 39° 98° (E) 11:16:16 437.325/437.525
Cosmos 2499 05 Jul 11:17:14 11:24:17 82° 97° (E) 11:31:30 435.465 / 435.565
DOVE 4 05 Jul 11:19:30 11:20:46 11° 298° (WNW) 11:21:51 437.250
QB50P2 05 Jul 11:19:57 11:24:13 87° 263° (W) 11:28:29 145.880/145.840
POPSAT HIP 1 05 Jul 11:20:25 11:24:40 89° 257° (WSW) 11:28:56 437.405
CUTE 1.7 + AOD 2 05 Jul 11:22:03 11:23:46 12° 298° (WNW) 11:25:17 437.475
AISAT 05 Jul 11:24:18 11:28:02 27° 94° (E) 11:31:50 437.250
UNISAT 6 05 Jul 11:26:05 11:29:59 33° 264° (W) 11:33:50 437.425
FUNcube-1 05 Jul 11:33:27 11:37:32 48° 287° (WNW) 11:41:39 145.935
CUBEBUG 1 05 Jul 11:39:12 11:42:31 21° 92° (E) 11:45:54 437.445
UWE-3 05 Jul 11:49:14 11:52:47 26° 292° (WNW) 11:56:20 435.000/436.395/437.385
ISS 05 Jul 11:51:17 11:53:55 22° 5° (N) 11:56:32 145.825
GONETS M04 05 Jul 11:52:12 11:58:11 19° 304° (WNW) 12:03:47
Oscar 19 05 Jul 11:55:55 11:57:45 12° 58° (ENE) 11:59:49 437.125/150
ESTCUBE 1 05 Jul 11:59:45 12:04:04 42° 98° (E) 12:08:23 437.505/2401.250
QB50P1 05 Jul 11:59:53 12:03:44 33° 264° (W) 12:07:35 145.935-145.965
VERMONT LUNAR 05 Jul 12:12:17 12:14:22 16° 204° (SSW) 12:16:26 437.305
VELOX 1 05 Jul 12:12:49 12:17:16 85° 103° (ESE) 12:21:39 145.980
ANTELSAT 05 Jul 12:13:34 12:15:04 11° 273° (W) 12:16:20 437.575/2403.000
NANOSAT C BR1 05 Jul 12:14:09 12:17:39 24° 266° (W) 12:21:05 145.865
DX 1 05 Jul 12:18:25 12:22:36 46° 289° (WNW) 12:26:44 434.975-435.025
DUCHIFAT 1 05 Jul 12:20:59 12:24:16 21° 267° (W) 12:27:28 145.980
50 SAT 05 Jul 12:22:07 12:25:57 57° 286° (WNW) 12:29:48 437.505
DELFI C3 05 Jul 12:25:17 12:27:00 12° 297° (WNW) 12:28:32 145.870
POLYITAN 1 05 Jul 12:27:57 12:30:52 17° 269° (W) 12:33:39 437.675
HO-68 05 Jul 12:30:12 12:33:02 12° 313° (NW) 12:35:28 435.675
BUGSAT 1 05 Jul 12:32:58 12:36:23 23° 267° (W) 12:39:42 437.445
ZACube-1 05 Jul 12:35:52 12:37:43 12° 297° (WNW) 12:39:23 437.345
SPROUT 05 Jul 12:36:53 12:40:27 26° 94° (E) 12:44:04 437.525
UKube-1 05 Jul 12:37:56 12:41:49 32° 291° (WNW) 12:45:38 .
PHONESAT 2.4 05 Jul 12:44:13 12:47:22 33° 193° (SSW) 12:50:32 2401.200-2431.200
HUMSAT D 05 Jul 12:44:45 12:47:49 20° 294° (WNW) 12:50:48 437.325/437.525
AISAT 05 Jul 13:00:44 13:04:39 30° 292° (WNW) 13:08:27 437.250
RS-15 05 Jul 13:04:30 13:15:11 41° 250° (WSW) 13:25:57 29.354- 29.394
Cosmos 2499 05 Jul 13:13:39 13:18:34 19° 300° (WNW) 13:23:17 435.465 / 435.565
TISAT 1 05 Jul 13:13:54 13:17:53 42° 98° (E) 13:21:52 437.305
CUBEBUG 1 05 Jul 13:14:58 13:19:02 37° 290° (WNW) 13:23:01 437.445
YUBILEINY 05 Jul 13:26:51 13:34:08 29° 64° (ENE) 13:41:38 435.215
ISS 05 Jul 13:27:40 13:30:49 47° 24° (NNE) 13:33:59 145.825
Oscar 19 05 Jul 13:31:14 13:36:22 81° 76° (ENE) 13:41:32 437.125/150
ESTCUBE 1 05 Jul 13:37:11 13:40:42 22° 295° (WNW) 13:44:07 437.505/2401.250
ITAMSAT 1 05 Jul 13:45:50 13:50:27 34° 67° (ENE) 13:55:10 435.822/435.867
Gurwin Techsat 1B 05 Jul 13:46:12 13:50:57 35° 67° (ENE) 13:55:47 435.225
VELOX 1 05 Jul 13:51:41 13:53:12 11° 300° (WNW) 13:54:31 145.980
Cosmos 2491 05 Jul 13:53:45 13:58:51 18° 78° (ENE) 14:04:26 435.465 / 435.565
BEESAT 05 Jul 14:10:27 14:14:37 29° 95° (E) 14:18:49 436.000
SPROUT 05 Jul 14:12:47 14:16:33 30° 291° (WNW) 14:20:15 437.525
BEESAT 3 05 Jul 14:13:03 14:14:33 12° 32° (NNE) 14:16:11 437.485
PHONESAT 2.4 05 Jul 14:23:17 14:24:50 12° 209° (SSW) 14:26:19 2401.200-2431.200
SWISSCUBE 05 Jul 14:25:57 14:30:34 45° 98° (E) 14:35:10 437.505
BEESAT 2 05 Jul 14:26:42 14:28:30 13° 33° (NNE) 14:30:24 435.950
ITUPSAT 1 05 Jul 14:31:50 14:36:29 46° 99° (E) 14:41:06 437.325
PCSat 05 Jul 14:32:55 14:35:16 13° 104° (ESE) 14:37:54 145.827
AO-7 05 Jul 14:44:32 14:51:51 37° 58° (ENE) 14:59:20 29.400- 29.500
TISAT 1 05 Jul 14:50:23 14:53:24 19° 295° (WNW) 14:56:17 437.305
ISS 05 Jul 15:04:18 15:07:06 27° 222° (SW) 15:09:52 145.825
KKS-1 05 Jul 15:06:18 15:09:22 19° 91° (E) 15:12:33 437.445
HORYU 2 05 Jul 15:07:03 15:10:43 27° 67° (ENE) 15:14:30 437.375
Oscar 19 05 Jul 15:13:59 15:16:28 13° 273° (W) 15:18:39 437.125/150
JAS-2 05 Jul 15:14:47 15:19:49 55° 71° (ENE) 15:25:11 435.910
YUBILEINY 05 Jul 15:23:06 15:31:47 68° 266° (W) 15:40:26 435.215
ITAMSAT 1 05 Jul 15:25:14 15:29:58 33° 264° (W) 15:34:40 435.822/435.867
Gurwin Techsat 1B 05 Jul 15:26:11 15:30:58 33° 265° (W) 15:35:43 435.225
Cosmos 2491 05 Jul 15:45:42 15:54:33 84° 95° (E) 16:03:24 435.465 / 435.565
BEESAT 05 Jul 15:48:10 15:52:30 33° 292° (WNW) 15:56:44 436.000
BEESAT 3 05 Jul 15:49:17 15:53:21 66° 53° (NE) 15:57:21 437.485
AIST 2 05 Jul 15:52:23 15:55:31 20° 39° (NE) 15:58:40 435.215
STARS 05 Jul 15:54:38 15:58:40 36° 97° (E) 16:02:42 437.465
AIST 1 05 Jul 15:57:12 16:01:36 80° 97° (E) 16:06:02
BEESAT 2 05 Jul 16:03:15 16:07:21 72° 54° (NE) 16:11:23 435.950
SWISSCUBE 05 Jul 16:04:23 16:08:11 23° 295° (WNW) 16:11:51 437.505
O/OREOS (USA 219) 05 Jul 16:04:39 16:07:46 18° 51° (NE) 16:11:01 437.305
SO-50 05 Jul 16:05:22 16:08:53 22° 112° (ESE) 16:12:36 436.795
ITUPSAT 1 05 Jul 16:10:20 16:14:06 22° 296° (WNW) 16:17:44 437.325
PCSat 05 Jul 16:12:34 16:18:01 89° 326° (NW) 16:23:29 145.827
Cosmos 2504 05 Jul 16:17:17 16:24:02 36° 71° (ENE) 16:31:19 435.465 / 435.565
CUTE-I 05 Jul 16:34:44 16:35:17 10° 55° (NE) 16:36:08 437.470
AO-7 05 Jul 16:36:09 16:44:22 59° 258° (WSW) 16:52:37 29.400- 29.500
KKS-1 05 Jul 16:42:02 16:46:16 45° 289° (WNW) 16:50:28 437.445
HORYU 2 05 Jul 16:43:21 16:47:18 31° 264° (W) 16:51:14 437.375
JAS-2 05 Jul 17:01:52 17:05:33 19° 272° (W) 17:09:11 435.910
Cubesat XI-IV 05 Jul 17:05:47 17:09:28 20° 61° (ENE) 17:13:18 437.490
MOZHAYETS 4 05 Jul 17:08:17 17:12:39 39° 97° (E) 17:17:01
YUBILEINY 05 Jul 17:23:17 17:27:06 13° 286° (WNW) 17:30:16 435.215
BEESAT 3 05 Jul 17:28:54 17:30:50 13° 249° (WSW) 17:32:35 437.485
AIST 2 05 Jul 17:30:18 17:34:28 59° 239° (WSW) 17:38:31 435.215
STARS 05 Jul 17:31:26 17:34:57 24° 294° (WNW) 17:38:23 437.465
AIST 1 05 Jul 17:38:47 17:39:58 11° 297° (WNW) 17:40:56
O/OREOS (USA 219) 05 Jul 17:43:09 17:47:37 56° 250° (WSW) 17:52:04 437.305
BEESAT 2 05 Jul 17:43:17 17:44:54 12° 250° (WSW) 17:46:17 435.950
SO-50 05 Jul 17:44:24 17:49:04 54° 310° (NW) 17:53:55 436.795
Cosmos 2491 05 Jul 17:45:52 17:52:43 23° 300° (WNW) 17:59:15 435.465 / 435.565
PCSat 05 Jul 17:58:21 18:02:14 19° 322° (NW) 18:06:01 145.827
GONETS M04 05 Jul 18:05:38 18:08:16 12° 48° (NE) 18:11:29
CUTE-I 05 Jul 18:09:08 18:14:26 64° 72° (ENE) 18:19:47 437.470
Cosmos 2504 05 Jul 18:09:17 18:16:26 48° 269° (W) 18:24:01 435.465 / 435.565
DANDE 05 Jul 18:40:55 18:42:49 17° 68° (ENE) 18:44:39 436.750
Cubesat XI-IV 05 Jul 18:43:46 18:49:06 66° 258° (WSW) 18:54:29 437.490
MOZHAYETS 4 05 Jul 18:45:55 18:49:41 24° 294° (WNW) 18:53:20
PRISM 05 Jul 18:55:46 18:57:17 12° 88° (E) 18:59:01 437.425
BRITE-PL 05 Jul 19:03:14 19:07:35 27° 68° (ENE) 19:11:48 437.365/2234.400
STRAND 1 05 Jul 19:06:31 19:10:16 21° 91° (E) 19:14:07 437.568
CUSAT 1 05 Jul 19:09:08 19:11:47 89° 78° (ENE) 19:14:24 437.405
DOVE 4 05 Jul 19:12:11 19:13:34 11° 62° (ENE) 19:15:08 437.250
CUBESAT XI-V 05 Jul 19:15:34 19:20:16 70° 101° (ESE) 19:24:54 437.345
HO-68 05 Jul 19:23:14 19:29:05 29° 59° (ENE) 19:35:05 435.675
SO-50 05 Jul 19:28:16 19:30:47 14° 332° (NNW) 19:33:12 436.795
CINEMA 3 05 Jul 19:47:46 19:48:52 11° 62° (ENE) 19:50:11 145.822/145.860
SEEDS 05 Jul 19:50:18 19:52:57 17° 65° (ENE) 19:55:45 437.485
CUTE-I 05 Jul 19:51:20 19:55:03 18° 271° (W) 19:58:35 437.470
AAUSAT CUBESAT 2 05 Jul 19:58:20 20:00:29 14° 64° (ENE) 20:02:48 437.432
GONETS M04 05 Jul 19:59:13 20:07:44 56° 75° (ENE) 20:16:15
GOMX 1 05 Jul 20:08:46 20:13:47 62° 74° (ENE) 20:18:31 467.674
COMPASS 1 05 Jul 20:24:04 20:27:40 30° 69° (ENE) 20:31:20 437.405
DANDE 05 Jul 20:24:48 20:25:47 11° 271° (W) 20:26:38 436.750
CUBEBUG 2 05 Jul 20:25:40 20:27:29 13° 63° (ENE) 20:29:27 437.445
Oscar 11 05 Jul 20:26:39 20:28:52 14° 63° (ENE) 20:31:15 145.826/435.025
PRISM 05 Jul 20:29:03 20:33:14 64° 287° (WNW) 20:37:21 437.425
CUTE 1.7 + AOD 2 05 Jul 20:38:16 20:42:26 65° 75° (ENE) 20:46:38 437.475
BRITE-PL 05 Jul 20:40:44 20:45:56 44° 262° (W) 20:50:48 437.365/2234.400
CANX-2 05 Jul 20:41:49 20:46:01 80° 76° (ENE) 20:50:17 2200.000
STRAND 1 05 Jul 20:44:49 20:49:50 53° 289° (WNW) 20:54:48 437.568
DOVE 4 05 Jul 20:45:58 20:50:48 90° 204° (SSW) 20:55:23 437.250
CUBESAT XI-V 05 Jul 20:54:30 20:57:11 15° 298° (WNW) 20:59:41 437.345
AUBIESAT-1 05 Jul 20:55:39 20:58:02 15° 96° (E) 21:00:41 437.475
FUNcube-1 05 Jul 20:56:16 20:58:45 16° 65° (ENE) 21:01:23 145.935
Cosmos 2499 05 Jul 21:05:14 21:12:07 33° 69° (ENE) 21:19:33 435.465 / 435.565
HO-68 05 Jul 21:09:20 21:16:25 63° 258° (WSW) 21:23:31 435.675
UWE-3 05 Jul 21:11:34 21:15:12 29° 69° (ENE) 21:18:51 435.000/436.395/437.385
CINEMA 3 05 Jul 21:21:05 21:25:34 84° 257° (WSW) 21:29:53 145.822/145.860
SEEDS 05 Jul 21:24:23 21:28:25 47° 261° (W) 21:32:30 437.485
M-CUBED/EXP-1 PRIME 05 Jul 21:30:08 21:34:07 38° 103° (ESE) 21:38:23 437.505
AAUSAT CUBESAT 2 05 Jul 21:31:35 21:35:40 58° 260° (W) 21:39:47 437.432
DELFI C3 05 Jul 21:36:53 21:40:45 49° 73° (ENE) 21:44:39 145.870
VELOX 1 05 Jul 21:38:55 21:40:10 11° 60° (ENE) 21:41:37 145.980
DX 1 05 Jul 21:40:26 21:43:34 20° 65° (ENE) 21:46:49 434.975-435.025
GOMX 1 05 Jul 21:49:05 21:52:18 16° 270° (W) 21:55:15 467.674
ZACube-1 05 Jul 21:55:04 21:59:14 67° 74° (ENE) 22:03:22 437.345
GONETS M04 05 Jul 21:56:39 22:04:15 34° 275° (W) 22:11:41
UKube-1 05 Jul 21:58:25 22:02:04 27° 67° (ENE) 22:05:46 .
CUBEBUG 2 05 Jul 21:59:29 22:03:44 67° 258° (WSW) 22:07:55 437.445
COMPASS 1 05 Jul 21:59:54 22:03:21 25° 266° (W) 22:06:47 437.405
Oscar 11 05 Jul 22:00:20 22:04:36 63° 260° (W) 22:08:53 145.826/435.025
HUMSAT D 05 Jul 22:01:47 22:05:28 34° 70° (ENE) 22:09:12 437.325/437.525
CUTE 1.7 + AOD 2 05 Jul 22:17:14 22:18:52 12° 273° (W) 22:20:18 437.475
AISAT 05 Jul 22:23:30 22:27:25 31° 68° (ENE) 22:31:22 437.250
ANTELSAT 05 Jul 22:25:20 22:27:10 13° 88° (E) 22:29:15 437.575/2403.000
AUBIESAT-1 05 Jul 22:28:53 22:33:05 61° 291° (WNW) 22:37:33 437.475
FUNcube-1 05 Jul 22:30:40 22:34:45 50° 261° (W) 22:38:49 145.935
TIGRISAT 05 Jul 22:36:19 22:38:58 16° 90° (E) 22:41:48 435.000
CUBEBUG 1 05 Jul 22:36:54 22:40:22 23° 66° (ENE) 22:43:56 437.445
UWE-3 05 Jul 22:48:12 22:51:45 25° 266° (W) 22:55:12 435.000/436.395/437.385
SO-50 05 Jul 22:55:54 22:56:37 10° 21° (NNE) 22:57:28 436.795
Cosmos 2499 05 Jul 22:58:00 23:05:39 56° 268° (W) 23:13:49 435.465 / 435.565
ESTCUBE 1 05 Jul 23:00:44 23:05:05 47° 71° (ENE) 23:09:29 437.505/2401.250
QB50P2 05 Jul 23:05:17 23:07:18 13° 89° (E) 23:09:32 145.880/145.840
M-CUBED/EXP-1 PRIME 05 Jul 23:05:19 23:08:47 24° 297° (WNW) 23:12:21 437.505
POPSAT HIP 1 05 Jul 23:05:41 23:07:35 13° 88° (E) 23:09:42 437.405
50 SAT 05 Jul 23:07:23 23:11:13 84° 256° (WSW) 23:15:05 437.505
VELOX 1 05 Jul 23:11:37 23:16:06 89° 262° (W) 23:20:35 145.980
DELFI C3 05 Jul 23:13:57 23:16:12 14° 271° (W) 23:18:16 145.870
DX 1 05 Jul 23:15:21 23:19:33 44° 261° (W) 23:23:45 434.975-435.025
UNISAT 6 05 Jul 23:15:36 23:19:48 42° 98° (E) 23:24:03 437.425
PCSat 05 Jul 23:16:20 23:20:20 21° 39° (NE) 23:24:25 145.827
SPROUT 05 Jul 23:32:41 23:36:13 26° 68° (ENE) 23:39:48 437.525
UKube-1 05 Jul 23:34:16 23:38:08 30° 264° (W) 23:41:58 .
ZACube-1 05 Jul 23:34:49 23:36:08 11° 273° (W) 23:37:11 437.345
HUMSAT D 05 Jul 23:38:09 23:41:20 21° 268° (W) 23:44:24 437.325/437.525
QB50P1 05 Jul 23:43:05 23:46:54 33° 96° (E) 23:50:43 145.935-145.965
NANOSAT C BR1 05 Jul 23:56:29 00:00:32 46° 99° (E) 00:04:35 145.865
ANTELSAT 06 Jul 00:00:05 00:04:28 67° 285° (WNW) 00:08:54 437.575/2403.000
AISAT 06 Jul 00:00:08 00:04:00 28° 265° (W) 00:07:49 437.250
DUCHIFAT 1 06 Jul 00:02:49 00:06:56 53° 100° (E) 00:11:02 145.980
TISAT 1 06 Jul 00:07:25 00:11:20 39° 71° (ENE) 00:15:18 437.305
POLYITAN 1 06 Jul 00:09:57 00:14:09 68° 101° (E) 00:18:21 437.675
TIGRISAT 06 Jul 00:11:48 00:16:03 52° 287° (WNW) 00:20:23 435.000
CUBEBUG 1 06 Jul 00:12:25 00:16:33 37° 263° (W) 00:20:41 437.445
BUGSAT 1 06 Jul 00:12:42 00:16:35 43° 99° (E) 00:20:27 437.445
SO-50 06 Jul 00:34:09 00:38:42 34° 44° (NE) 00:43:12 436.795
ESTCUBE 1 06 Jul 00:38:59 00:42:14 19° 269° (W) 00:45:23 437.505/2401.250
QB50P2 06 Jul 00:39:28 00:43:38 57° 287° (WNW) 00:47:45 145.880/145.840
POPSAT HIP 1 06 Jul 00:39:46 00:43:54 58° 287° (WNW) 00:48:01 437.405
UNISAT 6 06 Jul 00:53:02 00:56:22 21° 294° (WNW) 00:59:37 437.425
PCSat 06 Jul 00:59:00 01:04:28 82° 241° (WSW) 01:09:53 145.827
SPROUT 06 Jul 01:08:20 01:12:12 31° 264° (W) 01:16:03 437.525
BEESAT 06 Jul 01:18:21 01:22:47 40° 69° (ENE) 01:27:17 436.000
RS-15 06 Jul 01:18:58 01:27:56 33° 106° (ESE) 01:37:27 29.354- 29.394
QB50P1 06 Jul 01:19:14 01:22:37 23° 293° (WNW) 01:25:54 145.935-145.965
NANOSAT C BR1 06 Jul 01:33:12 01:36:05 18° 295° (WNW) 01:38:49 145.865
SWISSCUBE 06 Jul 01:33:53 01:38:36 62° 73° (ENE) 01:43:22 437.505
DUCHIFAT 1 06 Jul 01:39:47 01:42:22 16° 296° (WNW) 01:44:47 145.980
ITUPSAT 1 06 Jul 01:40:01 01:44:45 64° 72° (ENE) 01:49:32 437.325
Oscar 19 06 Jul 01:41:44 01:45:52 25° 93° (E) 01:50:07 437.125/150
TISAT 1 06 Jul 01:44:08 01:47:17 20° 268° (W) 01:50:21 437.305
POLYITAN 1 06 Jul 01:47:35 01:49:35 13° 298° (WNW) 01:51:24 437.675
BUGSAT 1 06 Jul 01:49:03 01:51:46 17° 295° (WNW) 01:54:20 437.445
Cosmos 2491 06 Jul 01:54:22 02:02:41 46° 72° (ENE) 02:11:00 435.465 / 435.565
Gurwin Techsat 1B 06 Jul 02:02:49 02:04:25 12° 85° (E) 02:06:21 435.225
AIST 1 06 Jul 02:03:19 02:06:48 23° 71° (ENE) 02:10:19
KKS-1 06 Jul 02:06:05 02:09:27 22° 66° (ENE) 02:12:54 437.445
SO-50 06 Jul 02:14:42 02:19:19 39° 243° (WSW) 02:23:48 436.795
YUBILEINY 06 Jul 02:30:46 02:37:50 30° 84° (E) 02:45:10 435.215
PCSat 06 Jul 02:45:13 02:47:07 11° 257° (WSW) 02:48:41 145.827
STARS 06 Jul 02:52:56 02:57:01 39° 70° (ENE) 03:01:08 437.465
BEESAT 06 Jul 02:56:54 03:00:47 24° 267° (W) 03:04:37 436.000
SWISSCUBE 06 Jul 03:13:58 03:16:57 16° 271° (W) 03:19:45 437.505
ITUPSAT 1 06 Jul 03:20:16 03:23:09 15° 271° (W) 03:25:51 437.325
Oscar 19 06 Jul 03:20:35 03:25:26 43° 291° (WNW) 03:30:16 437.125/150
RS-15 06 Jul 03:28:30 03:39:26 75° 309° (NW) 03:50:48 29.354- 29.394
ITAMSAT 1 06 Jul 03:35:43 03:40:58 77° 103° (ESE) 03:46:11 435.822/435.867
Gurwin Techsat 1B 06 Jul 03:39:56 03:45:18 88° 103° (ESE) 03:50:38 435.225
AIST 1 06 Jul 03:40:37 03:44:33 32° 269° (W) 03:48:22
KKS-1 06 Jul 03:41:39 03:45:52 40° 262° (W) 03:50:04 437.445
Cosmos 2491 06 Jul 03:51:28 03:59:32 42° 273° (W) 04:07:27 435.465 / 435.565
JAS-2 06 Jul 04:04:54 04:11:21 49° 98° (E) 04:18:33 435.910
MOZHAYETS 4 06 Jul 04:11:39 04:15:58 44° 71° (ENE) 04:20:23
YUBILEINY 06 Jul 04:25:34 04:34:11 62° 284° (WNW) 04:42:48 435.215
STARS 06 Jul 04:30:14 04:33:38 21° 267° (W) 04:36:56 437.465
HORYU 2 06 Jul 04:32:19 04:36:34 42° 98° (E) 04:40:50 437.375
AO-7 06 Jul 04:35:48 04:43:44 45° 99° (E) 04:51:40 29.400- 29.500
CUBESAT XI-V 06 Jul 04:47:16 04:48:09 11° 59° (ENE) 04:49:17 437.345
Cosmos 2504 06 Jul 04:51:58 04:56:56 22° 83° (E) 05:02:09 435.465 / 435.565
ITAMSAT 1 06 Jul 05:16:41 05:19:55 16° 300° (WNW) 05:22:58 435.822/435.867
Gurwin Techsat 1B 06 Jul 05:21:41 05:24:37 15° 301° (WNW) 05:27:21 435.225
RS-15 06 Jul 05:44:29 05:54:10 32° 339° (NNW) 06:04:06 29.354- 29.394
PRISM 06 Jul 05:47:47 05:49:28 12° 61° (ENE) 05:51:19 437.425
MOZHAYETS 4 06 Jul 05:50:01 05:53:27 20° 269° (W) 05:56:48
JAS-2 06 Jul 05:50:22 05:56:18 35° 294° (WNW) 06:02:43 435.910
HORYU 2 06 Jul 06:09:33 06:12:57 21° 295° (WNW) 06:16:17 437.375
CUBESAT XI-V 06 Jul 06:20:09 06:24:52 80° 75° (ENE) 06:29:37 437.345
O/OREOS (USA 219) 06 Jul 06:20:21 06:22:18 13° 100° (E) 06:24:27 437.305
STRAND 1 06 Jul 06:23:38 06:28:15 35° 68° (ENE) 06:32:58 437.568
CUTE-I 06 Jul 06:25:23 06:29:27 22° 91° (E) 06:33:38 437.470
AO-7 06 Jul 06:28:42 06:36:35 46° 299° (WNW) 06:44:21 29.400- 29.500
YUBILEINY 06 Jul 06:29:07 06:33:22 14° 309° (NW) 06:37:05 435.215
CUSAT 1 06 Jul 06:37:03 06:39:03 12° 91° (E) 06:41:12 437.405
Cosmos 2504 06 Jul 06:41:41 06:48:33 64° 282° (WNW) 06:55:29 435.465 / 435.565
Cubesat XI-IV 06 Jul 06:59:30 07:04:38 44° 98° (E) 07:09:45 437.490
GONETS M04 06 Jul 07:13:34 07:15:10 11° 73° (ENE) 07:17:31
PRISM 06 Jul 07:20:13 07:24:23 71° 258° (WSW) 07:28:36 437.425
BEESAT 3 06 Jul 07:20:34 07:24:37 74° 122° (ESE) 07:28:44 437.485
